Location: *
(58.7167°N, 26.1833°E)
Time: 14:59:08
(UTC+00:00)

Cosmos 1980 Rocket - Pass Details

Date: 25 August 2019
Orbit: 829 x 850 km, 71.0° (Epoch: 16 September)

Event Time Altitude Azimuth Distance (km) Brightness Sun altitude
Rises 19:55:25 0° 321° (NW) 3,395 7.3 -14.9°
Reaches altitude 10° 19:58:05 10° 312° (NW) 2,460 5.9 -15.1°
Maximum altitude 20:02:59 32° 251° (WSW) 1,423 3.5 -15.5°
Enters shadow 20:07:25 12° 193° (SSW) 2,308 4.1 -15.8°
